This is the latest recevied weather packets stored in our database for station/object M0TUM-1. If no packets are shown the sender has not sent any weather packets the latest 10 day(s).
| Time | Temp. | Humidity | Pressure | Rain* | Wind** | Luminosity | Snow |
|---|---|---|---|---|---|---|---|
| 1778044056 | 6.67° C | 89% | 1011.6 hPa | 0 mm | - | 15 W/m² | - |
| 1778043753 | 6.67° C | 89% | 1011.7 hPa | 0 mm | - | 11 W/m² | - |
| 1778043450 | 6.67° C | 89% | 1011.4 hPa | 0 mm | - | 12 W/m² | - |
| 1778043147 | 6.67° C | 89% | 1011.5 hPa | 0 mm | - | 9 W/m² | - |
| 1778042844 | 6.67° C | 89% | 1011.6 hPa | 0 mm | - | 9 W/m² | - |
| 1778042541 | 6.11° C | 88% | 1011.4 hPa | 0 mm | - | 10 W/m² | - |
| 1778042238 | 6.11° C | 88% | 1011.5 hPa | 0 mm | - | 8 W/m² | - |
| 1778041936 | 6.11° C | 88% | 1011.5 hPa | 0 mm | - | 6 W/m² | - |
| 1778041635 | 5.56° C | 88% | 1011.3 hPa | 0 mm | - | 3 W/m² | - |
| 1778041333 | 5.56° C | 88% | 1011.4 hPa | 0 mm | - | 3 W/m² | - |
| 1778041031 | 5.56° C | 88% | 1011.4 hPa | 0 mm | - | 1 W/m² | - |
| 1778040728 | 5.56° C | 88% | 1011.4 hPa | 0 mm | - | 0 W/m² | - |
| 1778040426 | 5.56° C | 88% | 1011.6 hPa | 0 mm | - | 0 W/m² | - |
| 1778040122 | 5.56° C | 88% | 1011.5 hPa | 0 mm | - | 0 W/m² | - |
| 1778039818 | 5.56° C | 88% | 1011.4 hPa | 0 mm | - | 0 W/m² | - |
| 1778039515 | 5.56° C | 88% | 1011.6 hPa | 0 mm | - | 0 W/m² | - |
| 1778039212 | 5.56° C | 88% | 1011.7 hPa | 0 mm | - | 0 W/m² | - |
| 1778038910 | 5.56° C | 88% | 1011.7 hPa | 0 mm | - | 0 W/m² | - |
| 1778038607 | 5.56° C | 87% | 1011.8 hPa | 0 mm | - | 0 W/m² | - |
| 1778038303 | 5.56° C | 87% | 1011.9 hPa | 0 mm | - | 0 W/m² | - |
| 1778038001 | 6.11° C | 87% | 1011.7 hPa | 0 mm | - | 0 W/m² | - |
| 1778037698 | 6.11° C | 87% | 1011.7 hPa | 0 mm | - | 0 W/m² | - |
| 1778037394 | 6.11° C | 87% | 1011.9 hPa | 0 mm | - | 0 W/m² | - |
| 1778037091 | 6.11° C | 87% | 1011.9 hPa | 0 mm | - | 0 W/m² | - |
| 1778036790 | 6.11° C | 87% | 1012.1 hPa | 0 mm | - | 0 W/m² | - |
* Rain latest hour (hover to see other rain measurements)
** Current wind speed in m/s (hover to see current wind gust speed)